Details From MNMG - Managua Intl
To MGGT - La Aurora
Flight Number -
Tags Generated
Created
Modified
Stats Distance 293 nm / 543 km
Max Altitude 0 ft / 0 m
Waypoints 4
Social Downloads 0
Likes 0
Share VATSIM

Download

Looking for another format? Having issues loading an existing format? Contact us
Advertisement - Login to hide

Notes

Generated

Route

MNMG LEMPA ROSAM MGGT

ID Type Via Altitude Latitude Longitude Leg Dist Tot Dist Heading (true) Name
O MNMG APT - 0 ft / 0 m 12.14274˚ -86.17933˚ - 0 nm - -
LEMPA FIX - 0 ft / 0 m 13.55167˚ -88.70667˚ 170 nm 170 nm 300° / 299° -
ROSAM FIX - 0 ft / 0 m 14.35667˚ -90.16667˚ 97 nm 268 nm 300° / 299° -
O MGGT APT - 0 ft / 0 m 14.57040˚ -90.53161˚ 24 nm 293 nm 301° / 301° -

Altitude Profile

Advertisement - Login to hide

Weather


0- 5 10 15 20 25 30 35+ Temperature / ° C

Clouds and Precipitation
Forecast for 2017-10-23 12:00 UTC. Updated 20 minutes ago

Ground ~20,000 ft ~40,000 ft Winds

MNMG

Details ICAO MNMG (MGA)
Name Managua Intl
Region Nicaragua
Timezone America/Managua (UTC-6.0)
Stats Elevation 194 ft / 59 m (AMSL)
Location 12.141493° -86.168178°
Runways 1
Magnetic Variation 0.925° W

METAR

MNMG 230700Z 16004KT 9999 FEW020CB SCT300 26/24 Q1008 A2977 NOSIG

Decode

TAF

Not found

Departure Runways

ID Width Length Bearing (true) Bearing (mag) Surface Threshold Offset Overrun Length
09 148 ft / 45 m 8,008 ft / 2,441 m 96.54° 97.46° Asphalt 0 ft / 0 m 100 ft / 30 m
27 148 ft / 45 m 8,008 ft / 2,441 m 276.55° 277.47° Asphalt 0 ft / 0 m 100 ft / 30 m

MGGT

Details ICAO MGGT (GUA)
Name La Aurora
Region Guatemala
Timezone America/Guatemala (UTC-6.0)
Stats Elevation 4,952 ft / 1,509 m (AMSL)
Location 14.583272° -90.527473°
Runways 1
Magnetic Variation 1.090° E

METAR

MGGT 230700Z 36004KT 9999 SCT014 SCT080 18/17 Q1024 A3024

Decode

TAF

Not found

Destination Runways

ID Width Length Bearing (true) Bearing (mag) Surface Threshold Offset Overrun Length
01 196 ft / 60 m 9,841 ft / 3,000 m 17.29° 16.20° Asphalt 0 ft / 0 m 0 ft / 0 m
19 196 ft / 60 m 9,841 ft / 3,000 m 197.29° 196.20° Asphalt 722 ft / 220 m 0 ft / 0 m

Approach Navaids

Runway Type Ident Frequency Range Bearing (true) Bearing (mag) Slope Elevation
01 Localiser IAAI 110.10 MHz 18 nm / 33 km 17.36° 16.27° - 4,952 ft / 1,509 m (AMSL)
01 Glidescope IAAI 110.10 MHz 10 nm / 19 km 17.29° 16.20° 3.00° 4,952 ft / 1,509 m (AMSL)
01 DME IAAI 110.10 MHz 18 nm / 33 km - - - 4,952 ft / 1,509 m (AMSL)

Popular Alternatives